Wind_Speed
147 146 142 135 128 119 113 109 102 97 85 79 75 71 60 55 53 49 50 51 47 46 47 46 46 44 45 43 41 39 38 36 35 35 35 36 38 38 38 39 39 39 40
141 142 145 138 135 124 117 112 109 104 87 79 76 75 67 59 58 52 51 53 49 47 45 46 46 46 45 44 44 45 41 39 38 37 37 36 37 38 37 38 39 42 44
131 134 150 144 137 129 120 115 110 105 92 73 77 79 73 68 63 52 51 47 47 49 48 48 47 45 44 46 46 45 43 40 40 39 38 38 39 41 42 42 43 45 48
119 135 141 149 140 132 123 119 110 107 98 61 64 74 72 68 61 52 46 47 46 47 50 51 50 47 47 48 49 46 45 44 43 43 41 41 42 44 45 45 48 49 51
113 125 137 152 145 137 126 121 110 107 98 71 77 70 70 71 66 60 50 47 48 49 42 45 51 49 53 53 52 50 49 47 47 44 44 46 47 47 46 48 50 53 54
106 116 133 152 149 141 129 123 114 108 103 96 80 84 74 72 66 60 54 47 49 46 42 41 41 46 50 51 51 53 53 51 52 52 53 52 51 51 52 51 53 54 57
101 106 118 152 156 143 136 126 120 110 108 96 72 75 74 69 68 62 57 47 41 43 44 41 44 45 47 47 48 49 50 52 50 49 50 53 54 55 54 54 53 53 53
91 99 113 139 158 142 142 133 120 115 111 114 83 78 74 71 63 63 58 49 45 48 46 45 43 40 39 46 46 45 44 45 44 44 42 44 45 46 47 46 45 45 45
81 93 106 125 156 149 141 135 123 119 112 111 91 82 78 62 66 58 47 51 54 49 47 48 45 44 38 37 42 44 44 43 44 43 40 37 37 38 40 41 41 42 44
74 87 95 112 155 149 145 135 125 120 114 112 95 91 76 61 56 56 63 54 56 49 52 49 52 44 37 31 39 48 47 45 42 42 43 41 40 41 43 42 42 42 42
67 78 88 107 147 154 149 140 129 121 115 109 103 88 76 62 57 57 57 71 58 56 57 55 50 44 46 36 35 45 51 49 47 48 49 49 48 47 46 44 44 42 41
63 73 81 104 133 151 149 146 130 123 117 113 111 90 73 64 71 64 68 70 63 68 65 60 53 48 45 41 41 33 41 53 53 50 53 54 54 51 50 49 48 45 46
61 70 78 102 127 149 150 145 130 123 118 117 107 88 76 79 76 61 56 60 68 65 68 61 54 51 49 49 47 46 42 42 54 57 57 54 53 52 55 51 49 47 49
57 68 80 104 124 136 150 144 132 124 122 120 111 93 82 79 68 70 71 62 64 71 61 58 54 54 49 51 48 52 54 50 53 57 58 55 53 50 52 52 52 52 54
50 63 78 101 119 131 149 140 130 126 123 120 113 98 80 73 68 72 71 61 70 67 71 58 49 52 50 50 51 55 54 56 55 57 54 57 54 52 55 55 54 54 55
53 65 79 100 114 130 145 137 133 127 123 118 111 106 86 71 73 71 73 68 68 73 74 56 53 52 56 58 58 63 61 53 52 53 54 53 49 52 52 50 53 57 61
54 66 84 101 114 128 137 135 133 127 125 119 113 106 91 92 88 84 79 78 66 70 74 59 59 59 58 63 62 57 54 50 55 54 53 50 50 48 51 55 55 60 62
60 68 81 94 112 125 138 135 131 128 124 120 117 117 101 103 88 77 70 75 80 72 68 59 61 57 64 51 50 50 51 52 57 54 48 51 51 54 56 59 60 60 65
61 72 81 95 111 126 134 132 124 123 123 123 121 120 119 107 103 95 80 83 75 78 73 64 62 67 59 52 55 48 48 52 53 55 54 53 58 61 62 62 67 66 72
61 76 87 98 113 124 125 121 119 119 121 122 121 120 122 119 114 92 85 82 81 74 75 75 74 66 62 63 62 57 57 53 53 51 53 51 63 68 67 67 69 73 75
64 80 92 100 114 121 121 115 118 120 120 119 123 122 118 116 113 109 91 90 80 79 76 76 78 69 66 70 64 62 63 61 59 55 59 67 67 68 69 73 77 80 84
67 77 92 110 118 123 121 118 122 125 121 119 118 120 117 115 116 108 103 99 88 87 82 76 82 80 74 66 63 60 58 52 57 63 64 63 70 74 75 78 81 83 86
71 89 104 111 117 122 121 124 123 123 122 120 118 116 117 117 108 106 109 101 86 86 84 86 82 84 86 70 71 68 67 65 66 72 77 79 81 82 80 80 81 83 83
76 94 106 115 115 119 119 121 123 125 125 118 115 117 115 115 113 107 107 112 100 94 94 87 85 86 80 78 77 74 73 72 77 78 81 82 84 86 84 84 83 87 89
76 91 109 116 121 122 122 123 124 126 126 122 118 117 113 114 113 110 106 106 97 96 89 96 85 81 79 82 79 79 82 86 86 82 80 81 83 81 90 92 94 96 100
74 86 104 116 124 121 123 125 121 125 127 125 119 119 118 114 118 111 109 112 102 101 95 99 93 85 86 82 83 85 82 80 82 81 82 84 86 91 94 98 101 106 108
Wind_Direction
221 219 219 216 216 214 214 212 210 210 214 218 217 219 222 224 226 226 229 231 230 231 229 228 226 226 228 229 232 237 242 244 247 252 254 258 263 267 273 274 277 279 285
221 221 217 216 215 213 212 211 209 211 210 215 218 219 220 221 223 224 224 227 227 231 233 233 233 230 231 232 235 239 242 245 248 251 257 261 263 267 269 272 279 281 284
217 219 215 214 214 211 210 209 209 208 206 210 218 217 218 218 221 224 226 224 229 230 232 235 235 236 236 236 238 241 245 247 251 254 256 259 262 266 268 272 279 281 283
214 214 216 212 210 209 207 208 207 208 205 198 217 224 218 221 222 221 220 222 225 228 233 235 236 239 240 240 241 245 248 250 252 254 257 260 263 267 269 272 277 280 283
212 210 212 212 209 207 204 204 205 205 201 193 213 222 222 219 219 217 218 224 227 230 231 234 236 239 241 243 246 249 249 252 252 256 261 263 265 267 270 273 277 280 285
211 208 207 210 209 205 202 202 202 204 199 197 203 224 221 218 215 216 217 220 224 228 236 234 238 239 241 245 249 251 252 255 261 264 263 262 264 267 271 274 278 282 285
209 208 204 207 207 207 201 201 201 200 198 191 200 205 208 214 212 217 218 220 227 228 233 238 237 237 240 243 247 250 254 257 261 263 265 264 264 265 269 273 278 281 284
209 207 203 205 206 208 202 201 200 197 195 196 199 204 206 209 212 211 214 216 223 222 232 234 236 240 248 247 247 249 253 256 258 263 267 267 265 266 268 272 275 280 287
208 208 203 202 204 206 204 201 199 197 194 195 196 205 206 211 214 212 221 223 223 230 232 231 246 254 253 254 249 250 252 254 259 261 264 261 261 263 267 268 274 283 286
205 206 201 196 204 205 204 202 198 196 193 192 193 201 192 203 208 202 205 215 227 229 229 236 248 250 249 251 254 248 251 253 256 252 251 250 255 261 265 271 276 284 285
204 204 198 196 201 203 202 202 198 193 193 188 192 197 197 199 202 201 208 216 218 228 238 247 245 252 248 254 256 248 247 249 252 251 250 255 256 262 268 271 273 280 281
201 200 195 195 198 201 200 203 197 191 193 187 194 191 192 197 206 205 207 216 221 233 243 240 246 247 244 253 253 249 255 251 252 254 256 258 263 269 271 270 273 279 279
196 195 189 190 195 198 197 200 195 190 192 189 189 187 193 199 199 195 208 205 217 225 232 239 247 250 252 251 246 252 264 267 258 257 258 261 264 269 271 274 276 278 277
192 187 184 186 190 193 195 198 193 190 191 188 189 191 193 194 197 198 203 211 216 227 228 239 249 246 248 244 257 258 258 268 264 259 260 261 264 267 270 272 277 277 279
185 182 181 185 187 189 193 195 191 190 191 189 187 187 193 192 196 195 196 204 210 215 224 233 236 241 244 250 257 256 261 262 258 257 255 259 261 266 270 273 276 277 280
176 178 179 183 184 187 189 192 191 190 191 187 190 192 193 194 200 196 198 203 209 217 218 229 237 244 247 254 253 255 258 255 252 253 256 260 262 266 268 268 273 279 279
172 176 178 181 182 185 185 190 191 190 191 187 192 189 193 197 198 196 199 205 210 214 221 227 231 242 244 249 250 249 249 246 248 252 258 261 263 266 268 271 273 281 281
169 172 178 177 178 183 187 189 190 190 191 188 194 195 193 201 197 202 201 209 212 217 218 228 229 231 236 241 247 245 247 251 256 261 269 266 266 266 267 269 278 280 284
171 169 171 174 177 183 187 189 189 191 192 190 194 198 198 204 209 208 206 212 212 213 221 220 226 225 230 238 242 244 246 251 257 264 267 266 267 267 272 273 283 281 282
170 167 170 174 177 181 186 188 189 191 194 193 197 202 204 208 209 207 209 213 214 218 219 223 226 223 234 238 244 249 250 246 256 263 265 258 260 271 278 275 277 280 285
171 171 167 173 178 182 187 187 192 193 194 196 198 205 206 210 210 215 214 211 218 222 230 230 225 228 229 234 240 245 245 248 256 253 246 257 271 269 271 275 279 282 284
174 168 169 172 178 185 188 192 192 193 195 197 199 205 206 210 211 213 214 220 223 223 223 224 228 227 234 237 238 239 242 246 252 255 256 259 261 263 270 276 281 286 289
172 169 173 173 181 186 188 194 193 195 196 199 200 204 207 210 211 214 217 220 224 224 227 227 229 234 236 236 242 244 246 252 255 257 261 263 265 267 274 279 284 291 288
176 177 173 178 183 187 190 197 195 195 197 201 202 205 208 211 212 214 216 220 225 225 228 231 230 233 232 239 240 244 247 253 257 260 262 267 270 273 277 280 280 281 280
180 181 180 182 184 188 193 197 196 197 200 202 204 205 209 210 214 215 216 221 222 222 225 224 231 233 237 242 248 253 255 259 259 261 265 272 275 273 276 277 277 278 281
186 187 186 187 188 192 196 199 197 199 200 203 205 208 209 212 215 216 217 219 223 225 227 228 230 236 238 244 248 250 248 252 255 259 265 270 275 276 276 277 277 280 282
Height
10331 10354 10393 10432 10463 10490 10510 10536 10558 10580 10594 10613 10632 10645 10663 10675 10682 10693 10700 10708 10718 10725 10732 10739 10745 10749 10755 10760 10764 10767 10770 10773 10777 10779 10780 10781 10782 10783 10783 10783 10782 10782 10781
10301 10337 10372 10406 10435 10463 10488 10513 10536 10559 10583 10602 10622 10634 10650 10664 10670 10681 10691 10700 10709 10716 10725 10732 10738 10744 10749 10753 10757 10759 10763 10767 10769 10771 10773 10774 10775 10776 10776 10776 10776 10775 10773
10262 10301 10337 10374 10412 10442 10469 10492 10519 10545 10576 10593 10605 10618 10634 10645 10657 10673 10684 10695 10703 10709 10716 10722 10729 10736 10742 10745 10749 10753 10757 10760 10763 10764 10765 10766 10767 10768 10768 10768 10768 10766 10765
10232 10273 10312 10343 10382 10416 10446 10476 10505 10533 10563 10587 10598 10610 10631 10646 10655 10665 10674 10684 10694 10699 10707 10714 10721 10727 10733 10737 10740 10745 10750 10753 10755 10755 10758 10758 10759 10759 10759 10760 10759 10757 10755
10206 10241 10278 10318 10356 10391 10425 10457 10490 10517 10547 10572 10585 10600 10619 10631 10643 10652 10662 10672 10683 10691 10699 10706 10713 10719 10723 10727 10732 10737 10740 10743 10744 10748 10749 10749 10749 10750 10751 10751 10750 10747 10746
10188 10217 10250 10295 10333 10367 10404 10440 10474 10503 10531 10554 10575 10586 10607 10619 10635 10644 10653 10663 10674 10684 10692 10699 10705 10709 10713 10718 10723 10727 10731 10734 10737 10739 10739 10740 10740 10740 10741 10742 10740 10739 10736
10171 10197 10231 10272 10310 10345 10384 10423 10457 10486 10512 10536 10548 10570 10592 10609 10623 10639 10646 10658 10668 10677 10683 10690 10696 10700 10704 10708 10713 10718 10722 10724 10727 10729 10730 10730 10730 10730 10731 10731 10731 10729 10727
10161 10182 10212 10250 10289 10327 10368 10406 10442 10469 10497 10527 10540 10562 10580 10599 10616 10629 10640 10651 10658 10663 10670 10678 10686 10692 10696 10699 10704 10708 10713 10716 10719 10720 10721 10720 10720 10720 10721 10722 10721 10720 10719
10153 10172 10200 10237 10276 10314 10358 10396 10429 10458 10484 10514 10534 10551 10573 10589 10608 10623 10634 10643 10648 10656 10662 10669 10677 10682 10687 10690 10695 10699 10703 10707 10710 10711 10711 10711 10711 10711 10712 10712 10713 10712 10711
10140 10161 10191 10223 10266 10309 10353 10383 10419 10447 10474 10496 10524 10539 10565 10580 10596 10614 10631 10626 10641 10648 10655 10661 10669 10674 10678 10682 10685 10690 10695 10698 10700 10700 10700 10701 10702 10703 10704 10704 10704 10704 10703
10134 10154 10183 10212 10254 10299 10340 10369 10404 10436 10463 10489 10514 10533 10554 10570 10586 10602 10613 10627 10632 10640 10646 10654 10661 10665 10670 10674 10677 10680 10686 10688 10689 10690 10691 10693 10693 10694 10695 10695 10695 10695 10693
10129 10147 10178 10209 10248 10293 10331 10359 10396 10428 10452 10478 10502 10527 10545 10561 10575 10590 10605 10616 10624 10631 10637 10645 10651 10656 10661 10666 10668 10671 10676 10679 10679 10680 10682 10685 10685 10686 10686 10685 10686 10686 10683
10128 10146 10171 10202 10237 10275 10318 10352 10394 10422 10446 10470 10494 10517 10534 10549 10564 10577 10594 10605 10613 10623 10630 10637 10641 10645 10651 10655 10658 10663 10667 10669 10670 10672 10674 10675 10676 10676 10676 10676 10676 10676 10674
10127 10145 10169 10194 10226 10268 10312 10342 10382 10414 10436 10462 10487 10510 10530 10543 10557 10570 10583 10597 10607 10615 10620 10625 10630 10634 10640 10645 10650 10654 10656 10658 10659 10661 10664 10664 10664 10665 10665 10665 10665 10665 10663
10137 10154 10174 10197 10226 10262 10308 10347 10381 10403 10428 10455 10480 10502 10520 10534 10549 10560 10575 10585 10592 10604 10610 10614 10618 10623 10630 10635 10639 10641 10645 10646 10647 10650 10651 10652 10653 10654 10655 10655 10655 10653 10652
10140 10158 10175 10199 10229 10268 10308 10346 10372 10398 10424 10451 10473 10492 10515 10524 10538 10551 10564 10572 10582 10592 10600 10605 10609 10615 10620 10626 10629 10630 10633 10634 10635 10638 10640 10641 10643 10643 10644 10644 10643 10643 10641
10147 10164 10179 10203 10235 10277 10317 10342 10364 10394 10420 10447 10465 10487 10502 10516 10523 10539 10547 10559 10568 10578 10589 10596 10600 10607 10612 10616 10617 10619 10620 10622 10623 10627 10629 10631 10632 10634 10634 10633 10633 10632 10629
10150 10168 10194 10219 10251 10283 10311 10337 10364 10392 10418 10442 10458 10474 10488 10496 10514 10526 10534 10547 10557 10567 10577 10585 10592 10597 10602 10603 10603 10606 10608 10612 10612 10615 10618 10618 10621 10622 10623 10623 10622 10621 10619
10168 10182 10206 10234 10263 10290 10315 10338 10370 10394 10414 10431 10445 10457 10471 10489 10498 10510 10524 10536 10547 10556 10567 10575 10581 10585 10587 10589 10592 10595 10599 10601 10603 10603 10605 10607 10608 10610 10610 10612 10611 10609 10605
10187 10200 10215 10246 10270 10303 10320 10351 10374 10389 10410 10428 10444 10453 10462 10464 10480 10501 10514 10528 10536 10546 10554 10563 10569 10572 10576 10578 10582 10587 10589 10592 10594 10596 10594 10595 10596 10597 10599 10598 10596 10594 10591
10199 10210 10229 10256 10282 10307 10328 10349 10363 10382 10400 10413 10430 10446 10456 10465 10485 10496 10508 10518 10526 10534 10544 10552 10559 10562 10565 10567 10573 10577 10580 10582 10583 10584 10587 10589 10590 10591 10589 10585 10583 10580 10577
10212 10232 10247 10257 10281 10299 10322 10337 10352 10370 10390 10407 10422 10431 10448 10457 10474 10486 10498 10506 10513 10523 10532 10540 10546 10550 10556 10558 10561 10566 10569 10572 10574 10574 10579 10581 10577 10575 10573 10571 10569 10566 10563
10220 10236 10242 10267 10280 10299 10317 10327 10344 10364 10383 10395 10407 10426 10442 10450 10462 10474 10487 10496 10501 10511 10521 10526 10535 10543 10546 10549 10552 10554 10561 10562 10564 10564 10564 10566 10564 10561 10561 10557 10554 10552 10549
10221 10235 10252 10265 10286 10302 10317 10319 10340 10356 10375 10388 10402 10413 10428 10442 10453 10467 10475 10483 10489 10499 10511 10514 10522 10529 10533 10538 10543 10547 10552 10551 10551 10551 10551 10550 10548 10547 10545 10543 10542 10539 10535
10225 10239 10251 10264 10279 10289 10300 10312 10331 10350 10367 10379 10390 10406 10419 10432 10443 10453 10463 10473 10478 10487 10496 10503 10509 10517 10521 10528 10533 10534 10536 10539 10539 10538 10539 10538 10536 10534 10532 10532 10527 10522 10519
10230 10242 10255 10261 10272 10286 10296 10304 10329 10342 10357 10372 10386 10393 10409 10421 10426 10440 10452 10460 10468 10477 10485 10490 10497 10504 10509 10515 10519 10522 10523 10523 10526 10526 10526 10525 10523 10521 10518 10516 10512 10508 10503